Zurück zum Katalog

DELTA 1 DEB

AktivPO
NORAD 21985·DEBRIS·🇺🇸 United States

Gestartet Jun 12, 1975 von Vandenberg Space Force Base

Loading…

Nächste Überflüge (nächste 24 Stunden)

TLE

AktuellSource: Space-Track

Epoche: Sep 13, 2026, 15:26 UTC

1 21985U 75052JX  26256.64336624  .00003759  00000-0  22940-2 0  9992
2 21985  99.5583 137.5322 0028425 289.8617  99.5356 14.06470970717900

Verfolge DELTA 1 DEB in Echtzeit mit AllMySat

Download on the App Store